[[{"header":{"parameterUnit":"m.s-1","parameterCategory":1,"la1":30.2991,"la2":30.254,"lo1":-89.0895,"lo2":-89.0444,"dy":0.0017,"dx":0.0017,"nx":28,"ny":28,"refTime":"2025-08-25T09:00:00:Z","depth":0,"parameterNumber":2,"parameterNumberName":"U-component_of_WINDS"},"data":[0,0,0,0,0,0,0,0,0,0,0,0,0,0,0,0,0,0,0,0,0,0,0,0,0,0,0,0,0,0,0,0,0,0,0,0,0,0,0,0,0,0,0,0,0,0,0,0,0,0,0,0,0,0,0,0,0,0,-0.9092,-0.9094,0,-0.927,-0.9272,-0.9274,-0.9344,-0.9344,-0.9343,-0.9343,-0.9527,-0.9532,-0.9538,0,0,0,0,0,0,0,0,0,0,0,0,0,-0.8813,-0.8818,-0.9092,-0.9094,-0.9096,-0.927,-0.9272,-0.9275,-0.9344,-0.9344,-0.9343,-0.9342,-0.9525,-0.9532,-0.9538,0,0,0,0,0,0,0,0,0,0,0,0,0,-0.8957,-0.882,-0.9091,-0.9152,-0.9159,-0.9269,-0.9272,-0.9275,-0.9344,-0.9344,-0.9343,-0.9342,-0.9523,-0.9531,-0.9539,-0.9603,0,0,-0.9564,-0.9567,0,0,0,0,0,0,0,0,-0.8949,-0.8967,-0.9141,-0.9148,-0.9156,-0.9284,-0.9242,-0.9385,-0.9344,-0.9274,-0.9343,-0.9342,-0.9447,-0.9461,-0.9496,-0.9612,-0.962,-0.9564,-0.9569,-0.9573,-0.9575,0,0,0,0,0,0,0,-0.8939,-0.896,-0.9163,-0.9143,-0.9153,-0.9171,-0.919,-0.9269,-0.9362,-0.928,-0.9286,-0.9306,-0.9451,-0.9488,-0.9501,-0.9623,-0.9564,-0.9571,-0.9576,-0.9579,-0.98,-0.9801,0,0,0,0,0,0,-0.8919,-0.8951,-0.9157,-0.9168,-0.9049,-0.9176,-0.9198,-0.9244,-0.9362,-0.9379,-0.9306,-0.9308,-0.9475,-0.9492,-0.9508,-0.9591,-0.9573,-0.958,-0.9585,-0.9799,-0.98,-0.9801,0,0,0,0,0,0,-0.8912,-0.8936,-0.915,-0.9061,-0.909,-0.9182,-0.9232,-0.9248,-0.9285,-0.9381,-0.9398,-0.9327,-0.9475,-0.9497,-0.9579,-0.9598,-0.9584,-0.9591,-0.9798,-0.9799,-0.9801,-0.9757,0,0,0,0,0,0,-0.8904,-0.8934,-0.8959,-0.9061,-0.9094,-0.9217,-0.9234,-0.9252,-0.9299,-0.9303,-0.9406,-0.9422,-0.9476,-0.9567,-0.9587,-0.9609,-0.9597,-0.9796,-0.9798,-0.98,-0.9757,-0.9757,-0.9756,0,0,0,0,0,-0.8894,-0.894,-0.8959,-0.8984,-0.9127,-0.9218,-0.9237,-0.9298,-0.93,-0.9326,-0.9388,-0.9419,-0.9593,-0.9574,-0.9598,-0.9623,-0.9795,-0.9798,-0.98,-0.9757,-0.9757,-0.9757,0,0,0,0,0,0,-0.8837,-0.8954,-0.8977,-0.9058,-0.9127,-0.9229,-0.9264,-0.9296,-0.9367,-0.9368,-0.9441,-0.9464,-0.954,-0.959,-0.9567,-0.9691,-0.9696,-0.9704,-0.9656,-0.9656,-0.9656,-0.9642,-0.9604,0,0,0,0,0,-0.8834,-0.8898,-0.8996,-0.9058,-0.9091,-0.9171,-0.9213,-0.9254,-0.933,-0.936,-0.9428,-0.95,-0.9571,-0.9617,-0.9687,-0.9765,-0.9788,-0.9793,-0.9793,-0.9792,-0.9798,-0.9842,-0.9846,-0.9809,-0.9809,-0.9809,0,0,-0.8828,-0.89,-0.8936,-0.9048,-0.9107,-0.9171,-0.9196,-0.9263,-0.9312,-0.937,-0.9452,-0.9504,-0.959,-0.967,-0.9708,-0.9714,-0.9813,-0.9795,-0.9794,-0.98,-0.9845,-0.9848,-0.9851,-0.981,-0.981,-0.981,0,0,-0.8851,-0.8911,-0.8969,-0.9027,-0.9115,-0.9168,-0.9182,-0.928,-0.9316,-0.9399,-0.9444,-0.9504,-0.9625,-0.9684,-0.973,-0.9774,-0.9805,-0.9795,-0.9794,-0.9836,-0.9839,-0.9842,-0.9858,-0.9863,-0.98,-0.98,-0.98,0,-0.8832,-0.8931,-0.8994,-0.9059,-0.9107,-0.9162,-0.9221,-0.9275,-0.9382,-0.9414,-0.9419,-0.9571,-0.9633,-0.9727,-0.9738,-0.9774,-0.9792,-0.9784,-0.9834,-0.9837,-0.9841,-0.9857,-0.9862,-0.9798,-0.9799,-0.9799,-0.9799,0,-0.8904,-0.8971,-0.9007,-0.9108,-0.9161,-0.9222,-0.9296,-0.9341,-0.9377,-0.943,-0.9514,-0.959,-0.9677,-0.9702,-0.9739,-0.9802,-0.9803,-0.9819,-0.9826,-0.9841,-0.9857,-0.9864,-0.9796,-0.9796,-0.9797,-0.9797,0,0,-0.8895,-0.9031,-0.9043,-0.9089,-0.9191,-0.9245,-0.9309,-0.9393,-0.9431,-0.9503,-0.9559,-0.9659,-0.9675,-0.9727,-0.9771,-0.9809,-0.9839,-0.9821,-0.9824,-0.9821,-0.9913,-0.9899,-0.9905,-0.986,-0.9861,-0.9862,-0.9906,0,-0.8931,-0.9047,-0.9106,-0.9197,-0.9261,-0.9314,-0.937,-0.9438,-0.9489,-0.9551,-0.9608,-0.9678,-0.9694,-0.9725,-0.9765,-0.9826,-0.9858,-0.9824,-0.9913,-0.9915,-0.9889,-0.9914,-0.99,-0.9937,-0.9912,-0.9913,-0.9914,0,-0.8988,-0.9059,-0.9155,-0.9249,-0.9278,-0.9327,-0.9409,-0.9467,-0.9546,-0.9581,-0.9639,-0.9681,-0.9752,-0.9753,-0.9851,-0.9826,-0.9866,-0.9902,-0.9905,-0.9916,-0.9915,-0.9924,-0.995,-0.9955,-0.9925,-0.9924,-0.9923,0,-0.8971,-0.9091,-0.9165,-0.9203,-0.9314,-0.9348,-0.9396,-0.9474,-0.9521,-0.9593,-0.9624,-0.9703,-0.9747,-0.9808,-0.9871,-0.9866,-0.9962,-0.9969,-0.9993,-0.9992,-1.0011,-1.0009,-1.0043,-1.0037,-1.0037,-1.0037,-1.0036,0,-0.9005,-0.9062,-0.9159,-0.9204,-0.927,-0.9337,-0.9401,-0.9453,-0.9522,-0.9579,-0.963,-0.9682,-0.9763,-0.9825,-0.9875,-0.9949,-0.9968,-0.9998,-1.0011,-0.9994,-0.9989,-1.002,-1.0019,-1.0038,-1.0038,-1.0038,-1.0037,0,-0.8998,-0.9065,-0.9148,-0.9247,-0.9273,-0.9317,-0.9402,-0.9448,-0.9501,-0.9572,-0.9593,-0.9677,-0.9753,-0.9822,-0.9924,-0.9957,-1.0032,-1.0048,-1.0004,-1.0011,-1.0031,-1.0028,-1.0086,-1.0097,-1.0083,-1.0083,-1.0083,0,-0.9014,-0.9059,-0.9163,-0.9204,-0.9251,-0.9317,-0.9364,-0.9433,-0.9481,-0.9574,-0.9609,-0.9689,-0.9756,-0.9875,-0.9946,-1.0024,-1.0042,-1.0057,-1.0054,-1.0035,-1.0042,-1.0038,-1.0043,-1.0056,-1.0056,-1.0056,-1.0055,0,-0.9037,-0.9068,-0.9134,-0.9212,-0.9268,-0.9333,-0.94,-0.9431,-0.9512,-0.9563,-0.9641,-0.9693,-0.9797,-0.9875,-0.9961,-1.0011,-1.0047,-1.0056,-1.0065,-1.0048,-1.0021,-1.0036,-1.0002,-1.0054,-1.0054,-1.0054,-1.0054,-1.0054,-0.9042,-0.9085,-0.9164,-0.9236,-0.9293,-0.9355,-0.9402,-0.9462,-0.9528,-0.9616,-0.9653,-0.9732,-0.981,-0.9929,-0.9979,-1.0042,-1.005,-1.0064,-1.0067,-1.007,-1.0066,-1.0011,-1.0058,-1.0059,-1.0059,-1.0059,-1.0059,0,-0.9067,-0.912,-0.9186,-0.9278,-0.9335,-0.9363,-0.9438,-0.9484,-0.9553,-0.9622,-0.9687,-0.9777,-0.9853,-0.993,-1.001,-1.0046,-1.0065,-1.0065,-1.0063,-1.0074,-1.0055,-1.0039,-1.0049,-1.0049,-1.0049,-1.0049,-1.0049,-1.0049,-0.9087,-0.916,-0.92,-0.9302,-0.9356,-0.9433,-0.9473,-0.953,-0.9586,-0.9683,-0.9747,-0.9796,-0.9868,-0.9955,-1.0026,-1.0047,-1.0074,-1.007,-1.0095,-1.0075,-1.0076,-1.0076,-1.006,-1.0075,-1.0075,-1.0109,-1.0109,-1.0109]},{"header":{"parameterUnit":"m.s-1","parameterCategory":1,"la1":30.2991,"la2":30.254,"lo1":-89.0895,"lo2":-89.0444,"dy":0.0017,"dx":0.0017,"nx":28,"ny":28,"refTime":"2025-08-25T09:00:00:Z","depth":0,"parameterNumber":3,"parameterNumberName":"V-component_of_WINDS"},"data":[0,0,0,0,0,0,0,0,0,0,0,0,0,0,0,0,0,0,0,0,0,0,0,0,0,0,0,0,0,0,0,0,0,0,0,0,0,0,0,0,0,0,0,0,0,0,0,0,0,0,0,0,0,0,0,0,0,0,-2.8774,-2.8774,0,-2.8802,-2.8802,-2.8802,-2.8762,-2.876,-2.8759,-2.8758,-2.8784,-2.8786,-2.8788,0,0,0,0,0,0,0,0,0,0,0,0,0,-2.8681,-2.8683,-2.8774,-2.8774,-2.8774,-2.8802,-2.8802,-2.8803,-2.8762,-2.876,-2.8759,-2.8757,-2.8783,-2.8786,-2.8788,0,0,0,0,0,0,0,0,0,0,0,0,0,-2.8716,-2.8684,-2.8773,-2.8757,-2.8756,-2.8802,-2.8802,-2.8803,-2.8762,-2.876,-2.8758,-2.8756,-2.8782,-2.8785,-2.8788,-2.885,0,0,-2.8798,-2.8799,0,0,0,0,0,0,0,0,-2.8714,-2.872,-2.8759,-2.8759,-2.8757,-2.8776,-2.8779,-2.8819,-2.8763,-2.876,-2.8758,-2.8755,-2.8783,-2.8786,-2.8796,-2.8851,-2.8853,-2.8798,-2.88,-2.8801,-2.8802,0,0,0,0,0,0,0,-2.8712,-2.8718,-2.8785,-2.876,-2.8759,-2.8748,-2.875,-2.8786,-2.8783,-2.876,-2.8757,-2.8761,-2.8782,-2.8793,-2.8796,-2.8853,-2.8798,-2.8801,-2.8803,-2.8804,-2.8959,-2.8962,0,0,0,0,0,0,-2.8712,-2.8717,-2.8784,-2.8785,-2.873,-2.8751,-2.8754,-2.8772,-2.8783,-2.8782,-2.8763,-2.8759,-2.8789,-2.8793,-2.8797,-2.8869,-2.8801,-2.8804,-2.8806,-2.8957,-2.896,-2.8962,0,0,0,0,0,0,-2.871,-2.8718,-2.8783,-2.875,-2.8758,-2.8755,-2.8776,-2.8774,-2.8785,-2.8785,-2.8784,-2.8775,-2.8787,-2.8792,-2.8837,-2.887,-2.8805,-2.8808,-2.8954,-2.8958,-2.8961,-2.9015,0,0,0,0,0,0,-2.8708,-2.8718,-2.8742,-2.8751,-2.876,-2.8824,-2.8778,-2.8776,-2.8791,-2.8786,-2.8796,-2.8795,-2.8786,-2.8833,-2.884,-2.8873,-2.8811,-2.8952,-2.8956,-2.896,-2.901,-2.902,-2.9028,0,0,0,0,0,-2.8704,-2.8756,-2.8744,-2.8752,-2.879,-2.8826,-2.883,-2.8819,-2.8793,-2.8817,-2.8817,-2.8795,-2.8865,-2.8838,-2.8846,-2.8879,-2.8949,-2.8955,-2.896,-2.9006,-2.9018,-2.9028,0,0,0,0,0,0,-2.875,-2.8757,-2.8743,-2.8799,-2.8812,-2.8819,-2.8848,-2.8832,-2.8852,-2.8846,-2.8831,-2.8833,-2.8881,-2.8885,-2.8854,-2.8939,-2.8903,-2.891,-2.8935,-2.8946,-2.8955,-2.8953,-2.8813,0,0,0,0,0,-2.8767,-2.8796,-2.88,-2.8849,-2.8856,-2.8851,-2.8866,-2.8857,-2.8869,-2.8874,-2.8877,-2.8889,-2.8914,-2.893,-2.8953,-2.901,-2.9011,-2.9037,-2.9046,-2.9054,-2.906,-2.909,-2.9101,-2.8979,-2.8979,-2.8979,0,0,-2.8801,-2.8809,-2.8828,-2.8858,-2.8867,-2.8897,-2.8856,-2.8889,-2.8911,-2.8879,-2.8921,-2.8924,-2.8936,-2.8988,-2.901,-2.8992,-2.9094,-2.906,-2.9066,-2.9068,-2.9096,-2.9108,-2.9118,-2.8983,-2.8982,-2.8982,0,0,-2.8879,-2.8888,-2.893,-2.894,-2.8954,-2.895,-2.896,-2.8969,-2.897,-2.9012,-2.8988,-2.9013,-2.9056,-2.9065,-2.9076,-2.9157,-2.9137,-2.9165,-2.9211,-2.924,-2.925,-2.9258,-2.9287,-2.9297,-2.9171,-2.9171,-2.9171,0,-2.892,-2.8965,-2.8953,-2.8988,-2.9001,-2.8974,-2.9015,-2.9025,-2.9046,-2.9055,-2.9034,-2.9087,-2.9094,-2.9146,-2.9166,-2.9176,-2.9186,-2.9163,-2.925,-2.9258,-2.9265,-2.9292,-2.9303,-2.9174,-2.9174,-2.9173,-2.9173,0,-2.9014,-2.9046,-2.9077,-2.9099,-2.9116,-2.9154,-2.9146,-2.9164,-2.9153,-2.9151,-2.9194,-2.9201,-2.9224,-2.9236,-2.9224,-2.9287,-2.9275,-2.9252,-2.9215,-2.9281,-2.9305,-2.9316,-2.9179,-2.9178,-2.9177,-2.9176,0,0,-2.9122,-2.9136,-2.9148,-2.9157,-2.917,-2.9194,-2.923,-2.9253,-2.9269,-2.9284,-2.9313,-2.9349,-2.9328,-2.934,-2.933,-2.9356,-2.9419,-2.933,-2.933,-2.9346,-2.9487,-2.9504,-2.9516,-2.9406,-2.9408,-2.9409,-2.9486,0,-2.92,-2.9264,-2.9253,-2.9314,-2.9342,-2.9317,-2.9348,-2.9359,-2.9358,-2.938,-2.9379,-2.9405,-2.9375,-2.9382,-2.9407,-2.9406,-2.9447,-2.94,-2.9432,-2.9433,-2.943,-2.9529,-2.9547,-2.9619,-2.9495,-2.9497,-2.9498,0,-2.93,-2.9319,-2.9383,-2.9391,-2.9402,-2.9431,-2.9451,-2.9473,-2.9485,-2.9482,-2.9495,-2.948,-2.9514,-2.9477,-2.9524,-2.9493,-2.9505,-2.9506,-2.9509,-2.9511,-2.947,-2.9534,-2.9642,-2.9653,-2.9513,-2.9512,-2.9511,0,-2.9372,-2.9413,-2.9457,-2.9465,-2.9476,-2.9496,-2.9502,-2.9511,-2.9525,-2.9542,-2.9551,-2.9572,-2.9584,-2.96,-2.959,-2.9563,-2.9638,-2.96,-2.9636,-2.9637,-2.9653,-2.9652,-2.9765,-2.9662,-2.9661,-2.9661,-2.9661,0,-2.9459,-2.9499,-2.9489,-2.9516,-2.956,-2.9547,-2.959,-2.9592,-2.96,-2.9626,-2.9604,-2.9629,-2.9614,-2.9637,-2.963,-2.967,-2.9675,-2.9673,-2.9671,-2.9675,-2.9675,-2.9683,-2.9678,-2.9664,-2.9663,-2.9663,-2.9662,0,-2.9547,-2.9542,-2.9588,-2.9594,-2.9597,-2.9629,-2.9633,-2.9658,-2.9655,-2.9688,-2.9695,-2.969,-2.9716,-2.9708,-2.9736,-2.973,-2.9781,-2.9772,-2.9777,-2.9775,-2.9812,-2.9808,-2.9933,-2.9948,-2.9835,-2.9836,-2.9837,0,-2.9604,-2.9634,-2.9644,-2.966,-2.9667,-2.9693,-2.9708,-2.9696,-2.9712,-2.9727,-2.9749,-2.9773,-2.9792,-2.9834,-2.9833,-2.9854,-2.9845,-2.9887,-2.9848,-2.9851,-2.9845,-2.9844,-2.9846,-2.9895,-2.9896,-2.9897,-2.9898,0,-2.9704,-2.97,-2.9723,-2.9744,-2.9763,-2.9779,-2.9793,-2.9807,-2.9796,-2.9814,-2.9841,-2.9856,-2.9884,-2.9908,-2.9927,-2.9931,-2.9913,-2.991,-2.992,-2.9925,-2.9927,-2.9926,-2.9799,-2.9908,-2.9907,-2.9906,-2.9905,-2.9905,-2.9778,-2.9804,-2.9814,-2.984,-2.9849,-2.9863,-2.9886,-2.9886,-2.9908,-2.9931,-2.9922,-2.9953,-2.9962,-2.9985,-2.9992,-3.0015,-2.9999,-3.0012,-3.0016,-3.0019,-3.0024,-2.9923,-3.0018,-3.0018,-3.0018,-3.0017,-3.0017,0,-2.9877,-2.9883,-2.9907,-2.9927,-2.9947,-2.9929,-2.9943,-2.996,-2.9988,-2.9998,-3.0017,-3.0047,-3.007,-3.0071,-3.0092,-3.011,-3.0102,-3.0116,-3.0114,-3.0116,-3.0038,-3.0027,-3.0122,-3.0122,-3.0122,-3.0122,-3.0122,-3.0122,-2.9932,-2.9974,-2.997,-3.0016,-3.0021,-3.0052,-3.0061,-3.0073,-3.0081,-3.0116,-3.0136,-3.0136,-3.0142,-3.0163,-3.0183,-3.0182,-3.0191,-3.0208,-3.0204,-3.0132,-3.0121,-3.0111,-3.0101,-3.021,-3.021,-3.028,-3.0281,-3.0282]}]]